GEFSNE_prec_meanprecacc_192.txt.gz
Total_Precipitation_Accumulation
1.10 1.20 1.18 1.13 1.16 1.13 1.33 1.51 1.65 1.60 1.59 1.57 1.47 1.44 1.49 1.54 1.51 1.29 1.11 1.07 0.95 0.85 0.81 0.78 0.77 0.80 0.85 0.91 0.98 1.07 1.17 1.33 1.49 1.64 1.88 2.22 2.60 2.95
1.29 1.29 1.26 1.24 1.33 1.26 1.33 1.47 1.61 1.79 1.74 1.47 1.38 1.37 1.35 1.20 1.21 1.10 1.03 1.14 1.02 0.91 0.85 0.83 0.81 0.80 0.78 0.78 0.79 0.82 0.85 0.88 0.93 0.98 1.09 1.28 1.54 1.91
1.57 1.53 1.58 1.64 1.60 1.52 1.55 1.56 1.60 1.81 1.78 1.43 1.47 1.52 1.42 1.24 1.13 1.06 1.01 1.07 1.08 1.11 0.96 0.84 0.72 0.66 0.64 0.67 0.69 0.73 0.76 0.80 0.85 0.87 0.87 0.91 0.95 1.08
1.67 1.87 1.85 1.81 1.69 1.55 1.63 1.59 1.59 1.83 1.78 1.58 1.64 1.69 1.64 1.42 1.30 1.19 1.03 1.01 1.07 1.18 1.00 0.87 0.78 0.71 0.67 0.67 0.69 0.69 0.69 0.72 0.74 0.75 0.74 0.75 0.77 0.80
1.71 1.80 1.87 1.98 1.83 1.70 1.66 1.64 1.69 1.81 1.90 1.79 1.76 1.92 1.88 1.64 1.49 1.27 1.07 1.09 0.97 1.08 1.04 0.94 0.90 0.85 0.80 0.74 0.72 0.71 0.68 0.67 0.66 0.69 0.71 0.74 0.74 0.72
1.75 1.69 1.79 2.03 2.09 2.04 1.86 1.79 1.85 1.96 2.01 2.00 1.97 2.05 2.08 1.99 1.78 1.48 1.30 1.17 1.03 0.97 1.06 0.98 0.93 0.89 0.83 0.76 0.71 0.70 0.70 0.68 0.66 0.65 0.65 0.64 0.63 0.62
1.61 1.52 1.53 1.71 1.92 2.02 1.86 1.82 1.88 1.89 1.91 1.97 2.00 2.04 2.05 2.13 1.96 1.66 1.46 1.33 1.15 1.00 1.04 0.98 0.93 0.84 0.83 0.84 0.78 0.72 0.66 0.63 0.61 0.60 0.59 0.59 0.58 0.56
1.63 1.57 1.45 1.37 1.37 1.50 1.64 1.76 1.87 1.82 1.78 1.91 2.05 2.08 2.04 2.06 2.06 1.90 1.66 1.43 1.28 1.11 1.15 1.14 1.08 1.02 0.88 0.79 0.81 0.75 0.68 0.64 0.62 0.58 0.55 0.54 0.53 0.52
1.50 1.49 1.27 1.15 1.22 1.17 1.31 1.42 1.53 1.60 1.60 1.71 1.84 1.94 2.06 2.20 2.24 2.03 1.83 1.66 1.42 1.23 1.21 1.13 1.06 1.07 0.97 0.88 0.91 0.79 0.74 0.70 0.66 0.62 0.60 0.56 0.53 0.53
1.31 1.30 1.26 1.21 1.20 1.23 1.24 1.22 1.21 1.28 1.38 1.41 1.53 1.74 1.97 2.17 2.30 2.18 2.04 1.75 1.48 1.31 1.27 1.15 0.98 0.92 0.86 0.87 0.92 0.85 0.77 0.71 0.64 0.59 0.57 0.55 0.50 0.49
1.33 1.33 1.32 1.25 1.33 1.19 1.13 1.16 1.16 1.20 1.25 1.31 1.34 1.51 1.76 1.94 2.01 2.03 1.96 1.78 1.54 1.32 1.22 1.19 0.99 0.91 0.87 0.77 0.77 0.83 0.75 0.69 0.65 0.58 0.53 0.53 0.54 0.52
1.38 1.37 1.33 1.21 1.19 1.05 0.97 1.07 1.07 1.09 1.14 1.15 1.17 1.18 1.25 1.56 1.85 1.69 1.66 1.67 1.51 1.28 1.05 1.11 1.10 1.09 1.01 0.78 0.68 0.69 0.66 0.67 0.69 0.65 0.60 0.55 0.57 0.51
1.40 1.35 1.35 1.27 1.02 0.95 0.90 0.93 0.97 1.00 1.09 1.11 1.08 1.10 1.19 1.33 1.55 1.59 1.54 1.49 1.45 1.26 1.07 1.04 1.00 1.01 0.95 0.76 0.61 0.57 0.55 0.53 0.53 0.58 0.63 0.62 0.56 0.51
1.36 1.38 1.40 1.25 0.98 0.86 0.75 0.73 0.71 0.67 0.76 0.89 0.97 1.00 1.04 1.15 1.29 1.43 1.47 1.45 1.33 1.21 1.12 1.08 0.94 0.87 0.81 0.70 0.58 0.51 0.52 0.53 0.53 0.49 0.52 0.67 0.66 0.62
1.19 1.34 1.26 1.07 0.89 0.75 0.69 0.64 0.58 0.55 0.65 0.76 0.85 0.89 0.90 0.97 1.20 1.48 1.62 1.64 1.53 1.30 1.17 1.11 1.03 0.92 0.90 0.78 0.64 0.55 0.52 0.51 0.50 0.53 0.52 0.55 0.60 0.60
1.00 1.09 1.10 1.08 1.02 0.93 0.82 0.71 0.62 0.66 0.74 0.81 0.92 1.02 1.11 1.18 1.26 1.39 1.57 1.61 1.59 1.41 1.20 1.14 1.08 1.07 0.98 0.81 0.73 0.64 0.55 0.50 0.48 0.53 0.60 0.59 0.63 0.69
0.99 1.04 1.06 1.14 1.18 1.19 1.15 1.07 0.99 0.95 0.89 0.87 0.99 1.10 1.14 1.17 1.20 1.29 1.42 1.45 1.35 1.23 1.10 1.01 1.05 1.05 1.01 0.92 0.80 0.65 0.57 0.49 0.47 0.52 0.65 0.67 0.64 0.67
0.89 1.02 1.17 1.27 1.35 1.36 1.34 1.22 1.10 0.99 0.91 0.93 0.99 1.07 1.11 1.12 1.15 1.26 1.37 1.38 1.26 1.14 1.10 0.97 0.97 1.07 1.05 0.92 0.77 0.68 0.61 0.54 0.50 0.57 0.65 0.67 0.64 0.61
0.73 0.88 1.05 1.14 1.23 1.24 1.24 1.16 1.11 1.04 1.02 1.05 1.11 1.15 1.19 1.19 1.20 1.21 1.30 1.34 1.25 1.14 1.10 1.09 1.01 1.01 0.98 0.76 0.57 0.54 0.59 0.59 0.63 0.66 0.68 0.67 0.60 0.55
0.59 0.70 0.82 0.94 1.07 1.20 1.26 1.23 1.20 1.18 1.11 1.09 1.16 1.18 1.21 1.24 1.22 1.18 1.22 1.28 1.25 1.19 1.12 1.06 1.00 0.90 0.84 0.78 0.64 0.55 0.55 0.66 0.72 0.72 0.70 0.71 0.68 0.66
0.61 0.64 0.69 0.81 0.99 1.16 1.26 1.31 1.32 1.25 1.14 1.12 1.13 1.16 1.17 1.21 1.19 1.13 1.17 1.27 1.27 1.20 1.05 0.88 0.81 0.92 1.01 1.08 0.93 0.64 0.56 0.62 0.75 0.83 0.87 0.90 0.85 0.81
0.70 0.70 0.72 0.80 0.95 1.13 1.23 1.26 1.30 1.25 1.19 1.16 1.13 1.17 1.19 1.20 1.18 1.14 1.14 1.21 1.18 1.13 1.04 0.99 1.09 1.25 1.30 1.20 0.95 0.78 0.73 0.73 0.78 0.84 0.86 0.87 0.88 0.82
0.79 0.74 0.73 0.79 0.91 1.06 1.14 1.18 1.24 1.22 1.16 1.14 1.13 1.15 1.19 1.20 1.25 1.25 1.19 1.21 1.23 1.27 1.34 1.30 1.29 1.31 1.30 1.23 1.12 0.99 0.89 0.83 0.85 0.87 0.79 0.74 0.71 0.69

GEFSNE_prec_meanprecacc_198.txt.gz
Total_Precipitation_Accumulation
1.14 1.24 1.22 1.18 1.21 1.20 1.41 1.60 1.72 1.66 1.64 1.61 1.50 1.47 1.53 1.58 1.54 1.33 1.15 1.15 1.05 0.95 0.91 0.86 0.83 0.85 0.89 0.95 1.02 1.11 1.21 1.36 1.53 1.68 1.92 2.25 2.63 2.99
1.34 1.33 1.31 1.29 1.38 1.32 1.40 1.53 1.68 1.86 1.79 1.50 1.41 1.41 1.38 1.23 1.24 1.13 1.07 1.20 1.09 0.98 0.92 0.89 0.88 0.86 0.83 0.84 0.84 0.87 0.89 0.92 0.97 1.02 1.13 1.31 1.57 1.95
1.62 1.57 1.61 1.68 1.65 1.56 1.59 1.60 1.64 1.85 1.82 1.46 1.49 1.54 1.44 1.26 1.15 1.07 1.04 1.10 1.12 1.18 1.02 0.90 0.80 0.75 0.73 0.74 0.76 0.79 0.81 0.85 0.90 0.91 0.93 0.96 1.00 1.12
1.73 1.92 1.90 1.86 1.74 1.61 1.68 1.63 1.62 1.86 1.80 1.60 1.65 1.70 1.65 1.43 1.32 1.21 1.06 1.04 1.10 1.23 1.06 0.93 0.86 0.80 0.76 0.76 0.77 0.76 0.75 0.77 0.80 0.80 0.79 0.79 0.80 0.84
1.78 1.86 1.93 2.03 1.88 1.76 1.71 1.68 1.73 1.85 1.93 1.80 1.77 1.93 1.89 1.67 1.52 1.30 1.11 1.12 1.01 1.12 1.09 1.00 0.97 0.93 0.88 0.82 0.79 0.76 0.73 0.71 0.71 0.73 0.75 0.77 0.77 0.75
1.84 1.76 1.84 2.07 2.12 2.07 1.90 1.82 1.89 2.00 2.05 2.02 1.99 2.08 2.11 2.03 1.81 1.51 1.33 1.21 1.07 1.01 1.10 1.03 1.00 0.95 0.89 0.82 0.77 0.76 0.75 0.72 0.69 0.67 0.68 0.67 0.65 0.65
1.67 1.58 1.59 1.78 1.99 2.07 1.90 1.85 1.92 1.93 1.95 2.01 2.02 2.07 2.09 2.17 1.99 1.69 1.50 1.37 1.19 1.04 1.08 1.03 0.98 0.90 0.89 0.90 0.84 0.78 0.71 0.68 0.65 0.63 0.62 0.62 0.60 0.58
1.67 1.62 1.51 1.46 1.50 1.64 1.76 1.86 1.95 1.89 1.84 1.96 2.10 2.13 2.10 2.12 2.13 1.97 1.73 1.51 1.36 1.18 1.22 1.22 1.14 1.07 0.92 0.84 0.87 0.80 0.73 0.69 0.67 0.62 0.59 0.56 0.56 0.55
1.54 1.53 1.32 1.21 1.30 1.26 1.43 1.55 1.66 1.72 1.71 1.81 1.92 2.00 2.11 2.25 2.30 2.11 1.93 1.76 1.52 1.32 1.29 1.19 1.11 1.11 1.02 0.94 0.99 0.85 0.80 0.76 0.72 0.69 0.65 0.60 0.55 0.55
1.38 1.37 1.32 1.27 1.26 1.30 1.31 1.30 1.29 1.36 1.45 1.46 1.58 1.79 2.01 2.21 2.34 2.24 2.11 1.82 1.55 1.36 1.31 1.19 1.03 0.98 0.93 0.95 1.03 0.95 0.85 0.79 0.71 0.66 0.63 0.60 0.54 0.51
1.39 1.40 1.41 1.34 1.43 1.30 1.23 1.26 1.27 1.30 1.34 1.39 1.42 1.57 1.82 1.99 2.06 2.08 2.01 1.83 1.59 1.36 1.27 1.24 1.04 0.96 0.92 0.84 0.87 0.93 0.84 0.78 0.74 0.66 0.59 0.58 0.59 0.55
1.43 1.43 1.42 1.31 1.28 1.14 1.06 1.17 1.19 1.22 1.27 1.27 1.27 1.27 1.32 1.61 1.89 1.72 1.69 1.71 1.55 1.32 1.09 1.15 1.14 1.14 1.06 0.83 0.74 0.75 0.72 0.74 0.77 0.74 0.69 0.62 0.63 0.56
1.50 1.44 1.43 1.36 1.10 1.02 0.96 0.98 1.02 1.06 1.17 1.16 1.12 1.13 1.21 1.35 1.57 1.62 1.56 1.51 1.49 1.29 1.10 1.09 1.06 1.07 1.01 0.81 0.67 0.63 0.61 0.59 0.59 0.65 0.70 0.69 0.63 0.57
1.39 1.41 1.43 1.29 1.01 0.88 0.77 0.75 0.73 0.70 0.79 0.92 0.98 1.01 1.05 1.16 1.30 1.44 1.49 1.48 1.36 1.24 1.15 1.11 0.99 0.92 0.87 0.76 0.65 0.58 0.59 0.60 0.59 0.55 0.57 0.72 0.70 0.66
1.20 1.36 1.27 1.08 0.90 0.76 0.70 0.65 0.59 0.55 0.65 0.77 0.85 0.89 0.91 0.98 1.21 1.49 1.65 1.67 1.56 1.33 1.21 1.15 1.06 0.96 0.94 0.83 0.69 0.60 0.57 0.56 0.56 0.59 0.59 0.61 0.64 0.64
1.01 1.10 1.12 1.09 1.03 0.95 0.83 0.72 0.63 0.66 0.74 0.82 0.93 1.03 1.12 1.19 1.27 1.40 1.58 1.63 1.61 1.43 1.22 1.16 1.11 1.11 1.03 0.85 0.77 0.69 0.60 0.54 0.53 0.58 0.65 0.64 0.68 0.73
1.01 1.06 1.09 1.16 1.20 1.21 1.17 1.08 0.99 0.95 0.89 0.87 1.00 1.11 1.15 1.19 1.21 1.30 1.44 1.47 1.36 1.25 1.12 1.03 1.08 1.08 1.04 0.96 0.83 0.69 0.60 0.53 0.51 0.56 0.69 0.70 0.66 0.69
0.92 1.04 1.20 1.30 1.38 1.39 1.37 1.25 1.11 1.00 0.93 0.94 1.00 1.09 1.12 1.14 1.16 1.27 1.39 1.40 1.28 1.15 1.12 0.99 1.00 1.11 1.10 0.97 0.81 0.72 0.65 0.59 0.55 0.61 0.68 0.70 0.66 0.62
0.74 0.91 1.08 1.17 1.25 1.26 1.25 1.18 1.12 1.06 1.04 1.06 1.13 1.17 1.21 1.20 1.21 1.22 1.31 1.35 1.26 1.15 1.12 1.11 1.04 1.04 1.01 0.79 0.60 0.57 0.64 0.64 0.68 0.71 0.72 0.69 0.63 0.57
0.60 0.72 0.85 0.97 1.09 1.21 1.27 1.24 1.21 1.19 1.13 1.10 1.17 1.19 1.22 1.25 1.23 1.19 1.23 1.30 1.28 1.22 1.17 1.11 1.05 0.95 0.89 0.83 0.70 0.61 0.62 0.73 0.79 0.77 0.73 0.73 0.69 0.67
0.63 0.66 0.72 0.84 1.01 1.18 1.28 1.33 1.33 1.26 1.15 1.13 1.14 1.17 1.18 1.22 1.20 1.14 1.19 1.30 1.30 1.24 1.09 0.92 0.87 0.99 1.07 1.14 0.99 0.70 0.62 0.67 0.79 0.86 0.89 0.92 0.86 0.82
0.71 0.72 0.74 0.82 0.97 1.14 1.24 1.27 1.31 1.26 1.20 1.17 1.15 1.18 1.20 1.20 1.18 1.14 1.15 1.22 1.20 1.15 1.06 1.01 1.11 1.28 1.33 1.23 0.98 0.81 0.76 0.75 0.80 0.85 0.87 0.88 0.90 0.83
0.79 0.75 0.74 0.80 0.93 1.07 1.16 1.19 1.24 1.22 1.17 1.15 1.14 1.16 1.21 1.22 1.27 1.27 1.21 1.22 1.24 1.28 1.36 1.32 1.30 1.33 1.32 1.26 1.14 1.01 0.91 0.86 0.87 0.88 0.79 0.75 0.72 0.70

GEFSNE_prec_meanprecacc_204.txt.gz
Total_Precipitation_Accumulation
1.26 1.36 1.31 1.25 1.28 1.28 1.53 1.73 1.86 1.78 1.75 1.71 1.59 1.55 1.61 1.65 1.61 1.38 1.21 1.20 1.08 0.98 0.95 0.91 0.90 0.93 0.97 1.01 1.08 1.16 1.25 1.40 1.57 1.73 1.96 2.30 2.69 3.05
1.44 1.42 1.40 1.38 1.47 1.41 1.51 1.66 1.81 1.99 1.92 1.61 1.51 1.49 1.44 1.27 1.29 1.17 1.11 1.23 1.11 0.99 0.94 0.92 0.90 0.89 0.87 0.88 0.89 0.92 0.94 0.98 1.03 1.09 1.19 1.36 1.62 2.01
1.70 1.65 1.71 1.78 1.74 1.66 1.69 1.70 1.75 1.97 1.95 1.58 1.56 1.59 1.47 1.28 1.17 1.10 1.06 1.13 1.15 1.22 1.06 0.93 0.83 0.78 0.77 0.78 0.80 0.84 0.88 0.92 0.96 0.97 0.98 1.01 1.05 1.17
1.80 2.01 1.98 1.95 1.83 1.70 1.77 1.72 1.72 1.96 1.90 1.68 1.70 1.73 1.67 1.46 1.35 1.23 1.08 1.07 1.14 1.29 1.10 0.97 0.89 0.84 0.81 0.81 0.83 0.83 0.83 0.84 0.86 0.86 0.85 0.86 0.87 0.90
1.88 1.95 2.00 2.11 1.97 1.87 1.80 1.76 1.79 1.91 1.99 1.86 1.82 1.97 1.93 1.70 1.55 1.33 1.14 1.17 1.05 1.16 1.13 1.03 1.01 0.96 0.91 0.85 0.82 0.80 0.77 0.76 0.76 0.79 0.81 0.83 0.83 0.81
1.92 1.84 1.92 2.15 2.19 2.13 1.96 1.88 1.95 2.06 2.11 2.08 2.04 2.12 2.15 2.06 1.85 1.55 1.38 1.26 1.11 1.04 1.13 1.06 1.03 0.99 0.93 0.86 0.81 0.80 0.80 0.77 0.74 0.73 0.73 0.71 0.69 0.69
1.76 1.66 1.65 1.84 2.06 2.14 1.98 1.95 2.04 2.04 2.04 2.08 2.08 2.12 2.13 2.21 2.04 1.73 1.54 1.41 1.22 1.07 1.12 1.07 1.02 0.95 0.95 0.97 0.90 0.83 0.76 0.73 0.70 0.68 0.66 0.65 0.63 0.61
1.73 1.68 1.57 1.52 1.56 1.72 1.87 2.00 2.12 2.08 2.04 2.14 2.27 2.28 2.21 2.19 2.17 2.01 1.77 1.55 1.42 1.25 1.29 1.29 1.22 1.15 1.00 0.90 0.92 0.84 0.75 0.72 0.70 0.66 0.62 0.60 0.59 0.58
1.58 1.58 1.37 1.26 1.35 1.30 1.47 1.62 1.77 1.85 1.87 2.00 2.13 2.20 2.27 2.36 2.38 2.17 1.99 1.82 1.58 1.39 1.36 1.26 1.17 1.17 1.07 0.99 1.05 0.90 0.83 0.79 0.75 0.72 0.69 0.64 0.60 0.59
1.41 1.40 1.36 1.31 1.30 1.34 1.35 1.34 1.33 1.41 1.53 1.56 1.68 1.90 2.11 2.30 2.43 2.32 2.19 1.88 1.60 1.41 1.36 1.25 1.07 1.03 0.99 1.00 1.09 0.99 0.89 0.83 0.75 0.69 0.67 0.64 0.58 0.55
1.43 1.44 1.44 1.37 1.47 1.35 1.31 1.35 1.37 1.40 1.45 1.50 1.52 1.67 1.92 2.08 2.14 2.17 2.11 1.93 1.67 1.42 1.32 1.29 1.09 1.01 0.96 0.88 0.90 0.96 0.87 0.82 0.78 0.70 0.63 0.62 0.63 0.60
1.47 1.47 1.45 1.34 1.33 1.20 1.14 1.27 1.30 1.33 1.37 1.38 1.39 1.41 1.48 1.78 2.05 1.86 1.83 1.83 1.65 1.39 1.15 1.20 1.19 1.18 1.09 0.85 0.76 0.77 0.74 0.76 0.79 0.77 0.73 0.67 0.69 0.63
1.53 1.48 1.46 1.39 1.13 1.04 0.99 1.01 1.05 1.09 1.20 1.20 1.15 1.18 1.27 1.42 1.65 1.71 1.65 1.59 1.54 1.34 1.15 1.12 1.09 1.10 1.03 0.84 0.69 0.65 0.63 0.62 0.62 0.68 0.74 0.73 0.69 0.64
1.42 1.44 1.46 1.32 1.04 0.91 0.79 0.77 0.75 0.71 0.80 0.93 1.00 1.02 1.07 1.18 1.32 1.46 1.52 1.51 1.40 1.27 1.18 1.14 1.01 0.94 0.90 0.79 0.67 0.60 0.61 0.62 0.61 0.58 0.61 0.76 0.75 0.73
1.23 1.39 1.31 1.12 0.93 0.77 0.71 0.67 0.61 0.57 0.67 0.79 0.87 0.91 0.93 1.00 1.23 1.52 1.68 1.70 1.59 1.35 1.23 1.17 1.09 0.99 0.97 0.85 0.72 0.63 0.59 0.58 0.58 0.62 0.63 0.65 0.69 0.70
1.02 1.12 1.13 1.10 1.04 0.95 0.84 0.74 0.65 0.69 0.76 0.83 0.94 1.05 1.14 1.21 1.30 1.43 1.62 1.66 1.64 1.45 1.24 1.18 1.13 1.14 1.05 0.88 0.79 0.71 0.62 0.56 0.55 0.61 0.68 0.68 0.73 0.79
1.02 1.08 1.10 1.17 1.21 1.22 1.19 1.10 1.02 0.98 0.92 0.91 1.03 1.15 1.19 1.22 1.24 1.33 1.48 1.51 1.40 1.29 1.16 1.06 1.10 1.10 1.06 0.97 0.86 0.71 0.63 0.55 0.53 0.59 0.73 0.75 0.72 0.74
0.93 1.05 1.21 1.31 1.39 1.41 1.40 1.29 1.15 1.04 0.96 0.98 1.05 1.13 1.18 1.18 1.21 1.32 1.43 1.44 1.31 1.19 1.15 1.02 1.02 1.14 1.12 0.99 0.84 0.76 0.69 0.63 0.59 0.66 0.73 0.76 0.73 0.67
0.75 0.91 1.09 1.18 1.26 1.27 1.27 1.21 1.16 1.11 1.08 1.11 1.17 1.21 1.26 1.25 1.26 1.27 1.35 1.38 1.29 1.18 1.15 1.13 1.06 1.07 1.04 0.82 0.61 0.59 0.66 0.67 0.72 0.77 0.79 0.78 0.72 0.64
0.60 0.72 0.86 0.98 1.10 1.22 1.28 1.26 1.24 1.22 1.16 1.13 1.20 1.22 1.25 1.28 1.26 1.22 1.27 1.34 1.31 1.25 1.19 1.13 1.07 0.98 0.92 0.86 0.72 0.63 0.63 0.75 0.84 0.85 0.82 0.83 0.80 0.76
0.64 0.67 0.73 0.85 1.02 1.19 1.29 1.34 1.34 1.28 1.17 1.14 1.16 1.19 1.20 1.25 1.23 1.17 1.22 1.33 1.33 1.27 1.12 0.95 0.89 1.00 1.09 1.17 1.03 0.73 0.65 0.71 0.82 0.91 0.94 0.99 0.94 0.91
0.72 0.73 0.75 0.83 0.98 1.15 1.25 1.28 1.32 1.27 1.22 1.19 1.16 1.20 1.22 1.23 1.21 1.17 1.18 1.25 1.23 1.18 1.09 1.03 1.13 1.30 1.36 1.27 1.02 0.85 0.79 0.78 0.82 0.87 0.89 0.91 0.93 0.88
0.80 0.76 0.75 0.81 0.93 1.08 1.17 1.20 1.26 1.24 1.19 1.17 1.16 1.19 1.23 1.24 1.30 1.30 1.24 1.26 1.27 1.31 1.39 1.35 1.33 1.35 1.35 1.29 1.17 1.03 0.93 0.87 0.89 0.91 0.82 0.77 0.74 0.71

GEFSNE_prec_meanprecacc_210.txt.gz
Total_Precipitation_Accumulation
1.41 1.53 1.48 1.43 1.44 1.42 1.69 1.91 2.05 1.96 1.90 1.86 1.71 1.64 1.70 1.74 1.72 1.47 1.32 1.30 1.14 1.03 0.99 0.95 0.94 0.98 1.02 1.07 1.13 1.20 1.30 1.46 1.63 1.79 2.02 2.36 2.75 3.13
1.58 1.59 1.56 1.53 1.62 1.54 1.66 1.86 2.02 2.19 2.08 1.75 1.63 1.57 1.52 1.34 1.36 1.24 1.19 1.30 1.16 1.03 0.97 0.95 0.95 0.95 0.93 0.93 0.94 0.97 1.00 1.03 1.07 1.13 1.24 1.42 1.68 2.06
1.79 1.78 1.83 1.90 1.86 1.77 1.83 1.86 1.94 2.16 2.14 1.76 1.71 1.71 1.58 1.38 1.25 1.16 1.10 1.18 1.21 1.28 1.12 1.00 0.91 0.85 0.83 0.84 0.86 0.89 0.92 0.96 1.01 1.03 1.04 1.07 1.10 1.22
1.88 2.12 2.09 2.07 1.97 1.83 1.90 1.86 1.90 2.15 2.06 1.81 1.84 1.85 1.78 1.55 1.44 1.30 1.13 1.12 1.19 1.36 1.16 1.02 0.95 0.89 0.86 0.86 0.87 0.87 0.86 0.88 0.91 0.91 0.90 0.90 0.91 0.94
1.97 2.05 2.09 2.21 2.09 1.99 1.92 1.88 1.93 2.06 2.13 1.97 1.92 2.06 2.01 1.77 1.63 1.40 1.21 1.24 1.10 1.23 1.18 1.07 1.05 1.00 0.95 0.89 0.85 0.83 0.80 0.79 0.79 0.82 0.85 0.87 0.88 0.86
2.01 1.92 1.99 2.21 2.26 2.21 2.05 1.98 2.05 2.18 2.22 2.17 2.12 2.21 2.23 2.15 1.95 1.65 1.48 1.34 1.19 1.11 1.19 1.10 1.07 1.03 0.96 0.88 0.83 0.81 0.81 0.78 0.76 0.74 0.74 0.73 0.72 0.72
1.83 1.73 1.71 1.89 2.10 2.20 2.03 2.02 2.13 2.14 2.14 2.17 2.18 2.23 2.26 2.37 2.21 1.90 1.67 1.53 1.32 1.15 1.18 1.12 1.07 0.99 0.99 1.00 0.92 0.84 0.78 0.74 0.71 0.69 0.68 0.67 0.65 0.63
1.80 1.74 1.62 1.57 1.60 1.76 1.91 2.04 2.17 2.14 2.13 2.27 2.42 2.46 2.44 2.42 2.38 2.17 1.90 1.67 1.52 1.34 1.37 1.35 1.27 1.20 1.04 0.94 0.97 0.88 0.78 0.74 0.72 0.67 0.62 0.60 0.60 0.59
1.67 1.66 1.42 1.29 1.39 1.34 1.52 1.66 1.80 1.88 1.91 2.06 2.22 2.32 2.42 2.52 2.53 2.30 2.11 1.92 1.67 1.46 1.42 1.31 1.22 1.23 1.12 1.05 1.10 0.95 0.86 0.81 0.77 0.74 0.70 0.64 0.60 0.59
1.47 1.45 1.41 1.35 1.34 1.39 1.40 1.39 1.38 1.46 1.57 1.58 1.72 1.95 2.19 2.38 2.51 2.40 2.27 1.96 1.68 1.48 1.43 1.30 1.14 1.10 1.05 1.06 1.14 1.04 0.93 0.86 0.77 0.70 0.68 0.64 0.59 0.56
1.46 1.48 1.48 1.42 1.52 1.39 1.35 1.41 1.43 1.46 1.49 1.54 1.55 1.70 1.95 2.13 2.21 2.25 2.21 2.04 1.78 1.53 1.43 1.39 1.18 1.08 1.03 0.94 0.94 0.99 0.89 0.83 0.79 0.71 0.64 0.62 0.63 0.61
1.51 1.51 1.50 1.38 1.37 1.22 1.18 1.31 1.34 1.38 1.42 1.43 1.44 1.47 1.54 1.84 2.13 1.96 1.94 1.94 1.74 1.47 1.22 1.28 1.26 1.25 1.15 0.90 0.79 0.79 0.75 0.77 0.80 0.78 0.74 0.68 0.70 0.63
1.56 1.51 1.48 1.41 1.14 1.06 1.02 1.05 1.10 1.14 1.25 1.24 1.19 1.20 1.29 1.45 1.68 1.75 1.70 1.64 1.59 1.38 1.19 1.17 1.13 1.14 1.08 0.88 0.73 0.68 0.66 0.64 0.64 0.70 0.75 0.75 0.70 0.65
1.45 1.46 1.48 1.34 1.07 0.94 0.82 0.80 0.79 0.75 0.84 0.97 1.03 1.05 1.09 1.20 1.34 1.49 1.55 1.55 1.44 1.31 1.21 1.17 1.04 0.98 0.93 0.83 0.71 0.62 0.63 0.64 0.63 0.61 0.64 0.78 0.77 0.74
1.24 1.40 1.32 1.14 0.96 0.82 0.76 0.71 0.65 0.60 0.70 0.83 0.91 0.94 0.96 1.04 1.26 1.54 1.71 1.75 1.65 1.41 1.28 1.21 1.13 1.03 1.01 0.89 0.75 0.66 0.62 0.60 0.60 0.65 0.65 0.68 0.72 0.73
1.03 1.13 1.14 1.12 1.07 0.99 0.88 0.77 0.67 0.70 0.78 0.86 0.97 1.07 1.16 1.23 1.32 1.46 1.65 1.70 1.70 1.52 1.30 1.24 1.19 1.19 1.10 0.92 0.83 0.74 0.65 0.59 0.57 0.63 0.72 0.72 0.77 0.82
1.03 1.08 1.11 1.20 1.24 1.25 1.20 1.11 1.02 0.98 0.93 0.92 1.05 1.17 1.21 1.24 1.27 1.37 1.52 1.54 1.45 1.34 1.20 1.11 1.15 1.15 1.10 1.01 0.89 0.74 0.66 0.59 0.57 0.63 0.77 0.80 0.77 0.78
0.93 1.06 1.22 1.32 1.41 1.42 1.41 1.30 1.16 1.05 0.98 1.00 1.07 1.16 1.21 1.22 1.25 1.36 1.46 1.46 1.34 1.22 1.19 1.05 1.06 1.19 1.18 1.04 0.87 0.78 0.72 0.66 0.63 0.70 0.77 0.80 0.77 0.72
0.75 0.92 1.10 1.19 1.28 1.29 1.28 1.22 1.18 1.13 1.11 1.14 1.20 1.25 1.30 1.29 1.29 1.31 1.39 1.42 1.33 1.21 1.17 1.16 1.09 1.11 1.09 0.87 0.66 0.61 0.68 0.69 0.74 0.79 0.82 0.82 0.76 0.68
0.61 0.73 0.87 0.99 1.11 1.23 1.30 1.27 1.25 1.24 1.18 1.15 1.22 1.24 1.27 1.31 1.29 1.25 1.31 1.38 1.35 1.28 1.22 1.16 1.10 1.01 0.95 0.88 0.76 0.65 0.66 0.77 0.86 0.87 0.85 0.86 0.82 0.79
0.65 0.68 0.74 0.87 1.04 1.21 1.30 1.35 1.35 1.29 1.19 1.17 1.18 1.21 1.23 1.27 1.25 1.20 1.25 1.36 1.37 1.30 1.15 0.98 0.91 1.03 1.12 1.22 1.08 0.77 0.68 0.73 0.84 0.93 0.97 1.01 0.97 0.95
0.73 0.75 0.77 0.86 1.01 1.17 1.27 1.30 1.34 1.29 1.23 1.20 1.18 1.22 1.24 1.25 1.23 1.19 1.20 1.28 1.26 1.21 1.12 1.06 1.16 1.33 1.39 1.31 1.08 0.89 0.83 0.81 0.84 0.89 0.90 0.92 0.95 0.90
0.82 0.78 0.77 0.84 0.96 1.10 1.18 1.22 1.27 1.25 1.20 1.19 1.17 1.21 1.25 1.26 1.33 1.33 1.28 1.29 1.30 1.34 1.42 1.39 1.36 1.38 1.37 1.31 1.20 1.07 0.95 0.90 0.92 0.94 0.84 0.78 0.75 0.72

GEFSNE_prec_meanprecacc_216.txt.gz
Total_Precipitation_Accumulation
1.48 1.61 1.57 1.51 1.55 1.55 1.85 2.07 2.20 2.08 2.00 1.95 1.80 1.72 1.79 1.86 1.87 1.61 1.44 1.46 1.36 1.22 1.12 1.06 1.02 1.04 1.09 1.15 1.22 1.31 1.40 1.58 1.76 1.91 2.13 2.46 2.83 3.21
1.63 1.65 1.62 1.58 1.69 1.63 1.75 1.96 2.13 2.31 2.19 1.83 1.69 1.61 1.58 1.42 1.45 1.32 1.28 1.40 1.27 1.14 1.08 1.05 1.04 1.05 1.03 1.03 1.03 1.04 1.07 1.12 1.16 1.21 1.31 1.50 1.74 2.12
1.85 1.84 1.89 1.97 1.91 1.82 1.88 1.94 2.05 2.29 2.25 1.85 1.78 1.76 1.64 1.45 1.32 1.24 1.19 1.27 1.30 1.38 1.23 1.12 1.03 0.96 0.94 0.92 0.94 0.97 1.00 1.04 1.07 1.09 1.11 1.14 1.17 1.29
1.95 2.17 2.14 2.12 2.02 1.88 1.96 1.92 1.96 2.23 2.14 1.89 1.92 1.93 1.86 1.63 1.51 1.39 1.23 1.21 1.28 1.43 1.25 1.13 1.05 1.00 0.96 0.94 0.94 0.93 0.92 0.93 0.96 0.96 0.96 0.96 0.97 1.01
2.03 2.12 2.15 2.28 2.14 2.04 1.98 1.94 1.99 2.15 2.22 2.06 2.01 2.14 2.07 1.83 1.70 1.50 1.31 1.33 1.19 1.31 1.27 1.18 1.14 1.08 1.02 0.94 0.91 0.88 0.85 0.85 0.85 0.88 0.90 0.92 0.93 0.91
2.07 1.98 2.05 2.26 2.31 2.27 2.10 2.04 2.12 2.25 2.30 2.26 2.21 2.29 2.29 2.22 2.04 1.77 1.63 1.52 1.37 1.26 1.31 1.20 1.15 1.10 1.03 0.94 0.89 0.87 0.87 0.84 0.81 0.79 0.78 0.77 0.75 0.76
1.89 1.79 1.78 1.96 2.16 2.25 2.06 2.04 2.16 2.18 2.18 2.23 2.23 2.28 2.30 2.42 2.27 1.98 1.77 1.64 1.43 1.26 1.27 1.18 1.13 1.04 1.05 1.04 0.96 0.88 0.81 0.78 0.75 0.72 0.70 0.70 0.67 0.65
1.84 1.78 1.66 1.62 1.64 1.79 1.94 2.06 2.19 2.16 2.15 2.29 2.45 2.50 2.48 2.47 2.43 2.22 1.96 1.73 1.58 1.40 1.44 1.40 1.31 1.24 1.06 0.96 0.99 0.91 0.82 0.77 0.74 0.69 0.64 0.62 0.61 0.61
1.69 1.69 1.45 1.32 1.42 1.37 1.54 1.69 1.82 1.90 1.92 2.07 2.23 2.35 2.46 2.59 2.60 2.37 2.17 1.98 1.72 1.52 1.49 1.37 1.27 1.28 1.17 1.08 1.13 0.98 0.90 0.85 0.80 0.77 0.73 0.67 0.62 0.61
1.49 1.48 1.42 1.36 1.35 1.40 1.42 1.41 1.40 1.48 1.59 1.60 1.73 1.97 2.22 2.42 2.56 2.46 2.34 2.04 1.74 1.52 1.47 1.34 1.18 1.14 1.09 1.11 1.20 1.10 0.98 0.89 0.79 0.73 0.71 0.67 0.61 0.58
1.47 1.49 1.51 1.43 1.54 1.41 1.37 1.42 1.44 1.47 1.52 1.56 1.57 1.73 1.98 2.16 2.24 2.29 2.27 2.12 1.87 1.63 1.52 1.48 1.27 1.17 1.12 1.03 1.04 1.09 0.97 0.89 0.82 0.73 0.66 0.64 0.65 0.62
1.53 1.53 1.52 1.40 1.40 1.25 1.19 1.32 1.35 1.39 1.44 1.45 1.47 1.50 1.58 1.89 2.18 2.00 2.00 2.02 1.84 1.58 1.35 1.39 1.34 1.31 1.21 0.95 0.84 0.85 0.80 0.81 0.83 0.79 0.75 0.69 0.71 0.64
1.59 1.54 1.51 1.43 1.16 1.08 1.04 1.06 1.11 1.15 1.26 1.26 1.21 1.23 1.32 1.48 1.71 1.78 1.74 1.68 1.63 1.41 1.22 1.19 1.15 1.16 1.10 0.90 0.75 0.71 0.69 0.67 0.66 0.71 0.77 0.76 0.71 0.66
1.48 1.49 1.50 1.35 1.08 0.95 0.84 0.82 0.80 0.76 0.86 0.99 1.05 1.07 1.12 1.23 1.37 1.51 1.57 1.58 1.47 1.34 1.25 1.20 1.07 1.01 0.96 0.85 0.73 0.64 0.66 0.66 0.65 0.63 0.65 0.80 0.78 0.75
1.26 1.41 1.33 1.15 0.97 0.82 0.77 0.72 0.66 0.62 0.72 0.86 0.93 0.96 0.98 1.06 1.29 1.56 1.72 1.77 1.66 1.42 1.30 1.23 1.16 1.07 1.05 0.93 0.78 0.68 0.64 0.62 0.61 0.66 0.66 0.69 0.73 0.74
1.04 1.14 1.15 1.13 1.07 0.99 0.88 0.78 0.69 0.72 0.81 0.88 0.99 1.09 1.19 1.26 1.34 1.47 1.66 1.72 1.71 1.54 1.32 1.26 1.21 1.22 1.13 0.95 0.86 0.76 0.66 0.60 0.58 0.64 0.73 0.73 0.78 0.84
1.04 1.09 1.11 1.20 1.25 1.25 1.21 1.12 1.04 1.00 0.95 0.93 1.06 1.18 1.22 1.26 1.29 1.38 1.53 1.56 1.46 1.35 1.22 1.13 1.18 1.18 1.13 1.04 0.92 0.76 0.68 0.60 0.58 0.64 0.78 0.81 0.78 0.79
0.94 1.07 1.22 1.33 1.41 1.43 1.41 1.31 1.17 1.06 0.99 1.01 1.08 1.16 1.21 1.23 1.27 1.38 1.48 1.49 1.36 1.24 1.21 1.08 1.09 1.23 1.22 1.08 0.90 0.82 0.75 0.68 0.64 0.71 0.78 0.81 0.78 0.73
0.76 0.93 1.11 1.20 1.28 1.29 1.29 1.22 1.18 1.13 1.12 1.15 1.21 1.26 1.31 1.30 1.31 1.34 1.42 1.45 1.35 1.23 1.20 1.18 1.13 1.15 1.13 0.91 0.70 0.65 0.73 0.75 0.79 0.84 0.86 0.84 0.78 0.69
0.62 0.74 0.87 0.99 1.11 1.23 1.30 1.28 1.26 1.24 1.18 1.15 1.23 1.25 1.28 1.32 1.30 1.27 1.32 1.40 1.37 1.30 1.24 1.18 1.14 1.05 1.00 0.94 0.82 0.71 0.71 0.84 0.92 0.93 0.89 0.90 0.85 0.81
0.66 0.69 0.74 0.87 1.04 1.21 1.31 1.37 1.37 1.31 1.20 1.18 1.19 1.23 1.24 1.29 1.27 1.22 1.27 1.38 1.39 1.32 1.16 0.99 0.93 1.05 1.14 1.25 1.12 0.81 0.73 0.77 0.88 0.96 1.00 1.05 0.99 0.97
0.74 0.75 0.78 0.86 1.01 1.18 1.28 1.32 1.36 1.30 1.25 1.22 1.19 1.23 1.25 1.26 1.25 1.21 1.22 1.30 1.28 1.24 1.14 1.08 1.18 1.35 1.42 1.34 1.11 0.92 0.86 0.83 0.87 0.91 0.92 0.95 0.97 0.92
0.84 0.79 0.78 0.84 0.96 1.11 1.19 1.23 1.28 1.26 1.20 1.20 1.18 1.21 1.26 1.27 1.33 1.34 1.30 1.32 1.34 1.37 1.45 1.41 1.39 1.41 1.40 1.34 1.23 1.10 0.98 0.93 0.95 0.97 0.86 0.80 0.76 0.73

GEFSNE_prec_meanprecacc_222.txt.gz
Total_Precipitation_Accumulation
1.55 1.67 1.64 1.59 1.63 1.63 1.93 2.18 2.29 2.14 2.04 1.99 1.84 1.78 1.86 1.94 1.95 1.67 1.50 1.54 1.45 1.32 1.24 1.18 1.14 1.18 1.25 1.31 1.38 1.47 1.58 1.77 1.95 2.08 2.27 2.59 2.95 3.31
1.67 1.69 1.67 1.64 1.74 1.69 1.81 2.02 2.20 2.37 2.23 1.86 1.73 1.67 1.63 1.48 1.53 1.38 1.34 1.50 1.38 1.25 1.21 1.19 1.18 1.18 1.15 1.15 1.16 1.17 1.20 1.23 1.29 1.37 1.47 1.64 1.86 2.21
1.89 1.87 1.93 2.00 1.95 1.85 1.92 1.98 2.11 2.36 2.33 1.92 1.83 1.81 1.69 1.50 1.38 1.30 1.26 1.35 1.40 1.50 1.36 1.26 1.16 1.09 1.05 1.04 1.05 1.08 1.10 1.14 1.17 1.20 1.24 1.29 1.31 1.40
2.02 2.23 2.20 2.18 2.09 1.95 2.04 1.99 2.03 2.30 2.21 1.97 1.99 1.99 1.91 1.68 1.56 1.44 1.29 1.29 1.37 1.54 1.33 1.21 1.15 1.10 1.07 1.06 1.05 1.01 0.99 1.00 1.04 1.04 1.04 1.05 1.07 1.11
2.08 2.18 2.21 2.34 2.21 2.11 2.05 2.01 2.05 2.22 2.30 2.12 2.06 2.20 2.13 1.88 1.75 1.54 1.36 1.39 1.25 1.38 1.34 1.25 1.22 1.15 1.09 1.02 0.99 0.96 0.93 0.92 0.93 0.96 0.99 1.01 1.02 0.99
2.09 2.01 2.09 2.32 2.36 2.31 2.15 2.10 2.18 2.31 2.35 2.30 2.26 2.35 2.34 2.26 2.09 1.82 1.67 1.56 1.42 1.33 1.38 1.27 1.24 1.19 1.12 1.04 0.98 0.95 0.94 0.92 0.88 0.86 0.84 0.82 0.80 0.80
1.91 1.81 1.80 2.00 2.22 2.30 2.12 2.08 2.19 2.21 2.21 2.26 2.27 2.32 2.34 2.45 2.30 2.00 1.79 1.67 1.47 1.30 1.31 1.22 1.17 1.08 1.09 1.09 1.00 0.92 0.85 0.81 0.78 0.75 0.74 0.74 0.72 0.70
1.87 1.81 1.69 1.66 1.69 1.84 1.97 2.09 2.21 2.18 2.17 2.31 2.47 2.52 2.50 2.49 2.46 2.25 1.98 1.76 1.61 1.42 1.46 1.43 1.35 1.27 1.09 0.98 1.02 0.93 0.83 0.79 0.76 0.70 0.66 0.65 0.65 0.65
1.71 1.71 1.47 1.33 1.44 1.38 1.56 1.71 1.84 1.92 1.94 2.09 2.25 2.36 2.48 2.61 2.64 2.42 2.22 2.02 1.76 1.56 1.54 1.43 1.33 1.33 1.21 1.13 1.18 1.01 0.92 0.87 0.82 0.79 0.75 0.69 0.65 0.64
1.50 1.50 1.45 1.38 1.36 1.41 1.43 1.42 1.41 1.48 1.60 1.61 1.74 1.98 2.23 2.43 2.58 2.50 2.39 2.10 1.81 1.59 1.53 1.43 1.27 1.25 1.20 1.21 1.30 1.19 1.06 0.96 0.84 0.77 0.73 0.70 0.64 0.61
1.49 1.51 1.54 1.46 1.55 1.42 1.37 1.42 1.45 1.48 1.52 1.56 1.58 1.74 2.00 2.18 2.26 2.32 2.29 2.15 1.91 1.68 1.60 1.59 1.39 1.29 1.23 1.12 1.12 1.18 1.06 0.98 0.90 0.80 0.72 0.69 0.69 0.66
1.53 1.54 1.53 1.42 1.42 1.26 1.20 1.33 1.35 1.39 1.44 1.46 1.48 1.51 1.59 1.91 2.20 2.02 2.01 2.05 1.87 1.60 1.37 1.42 1.39 1.37 1.26 0.99 0.88 0.89 0.86 0.90 0.93 0.89 0.83 0.75 0.75 0.68
1.60 1.54 1.52 1.44 1.17 1.10 1.07 1.09 1.13 1.16 1.27 1.27 1.23 1.25 1.34 1.50 1.73 1.79 1.75 1.71 1.66 1.44 1.25 1.23 1.18 1.20 1.13 0.93 0.77 0.73 0.71 0.70 0.72 0.79 0.84 0.81 0.75 0.69
1.50 1.52 1.52 1.38 1.10 0.97 0.87 0.85 0.85 0.81 0.90 1.03 1.07 1.09 1.13 1.24 1.38 1.52 1.60 1.61 1.50 1.37 1.28 1.24 1.11 1.05 0.99 0.88 0.75 0.66 0.68 0.69 0.68 0.67 0.70 0.84 0.82 0.78
1.28 1.44 1.36 1.17 0.99 0.84 0.78 0.74 0.69 0.66 0.78 0.92 1.00 1.01 1.01 1.08 1.31 1.59 1.76 1.81 1.71 1.46 1.33 1.26 1.18 1.10 1.09 0.96 0.81 0.70 0.66 0.65 0.65 0.69 0.70 0.72 0.76 0.76
1.07 1.17 1.18 1.16 1.09 1.00 0.90 0.79 0.70 0.74 0.83 0.92 1.03 1.13 1.23 1.31 1.38 1.51 1.69 1.75 1.74 1.56 1.34 1.28 1.23 1.24 1.15 0.98 0.89 0.80 0.70 0.63 0.61 0.67 0.75 0.75 0.80 0.85
1.07 1.13 1.16 1.25 1.29 1.28 1.24 1.14 1.05 1.01 0.96 0.94 1.07 1.19 1.23 1.27 1.30 1.40 1.55 1.58 1.48 1.37 1.23 1.15 1.20 1.20 1.15 1.06 0.95 0.80 0.72 0.65 0.62 0.69 0.82 0.84 0.80 0.82
0.98 1.12 1.28 1.39 1.47 1.48 1.45 1.33 1.19 1.07 0.99 1.01 1.08 1.17 1.22 1.23 1.27 1.39 1.49 1.50 1.37 1.25 1.22 1.10 1.11 1.25 1.24 1.10 0.93 0.84 0.78 0.72 0.69 0.77 0.83 0.85 0.81 0.75
0.83 0.99 1.16 1.24 1.31 1.31 1.31 1.24 1.19 1.14 1.12 1.15 1.22 1.27 1.32 1.31 1.32 1.35 1.43 1.46 1.37 1.25 1.21 1.20 1.15 1.17 1.15 0.94 0.72 0.68 0.77 0.79 0.85 0.90 0.92 0.90 0.83 0.73
0.69 0.80 0.93 1.03 1.14 1.26 1.32 1.29 1.27 1.25 1.19 1.16 1.23 1.26 1.29 1.33 1.32 1.28 1.34 1.41 1.39 1.32 1.25 1.20 1.15 1.07 1.01 0.96 0.83 0.73 0.74 0.88 0.98 0.99 0.95 0.97 0.92 0.86
0.70 0.72 0.78 0.91 1.07 1.23 1.33 1.37 1.37 1.31 1.20 1.18 1.19 1.23 1.24 1.30 1.28 1.23 1.29 1.40 1.41 1.35 1.18 1.01 0.94 1.07 1.16 1.27 1.14 0.83 0.74 0.79 0.90 0.99 1.04 1.09 1.05 1.02
0.77 0.78 0.80 0.88 1.03 1.21 1.30 1.32 1.36 1.31 1.26 1.22 1.19 1.23 1.25 1.27 1.25 1.21 1.23 1.31 1.29 1.25 1.17 1.10 1.21 1.39 1.45 1.38 1.13 0.94 0.89 0.86 0.89 0.94 0.95 0.97 1.00 0.95
0.87 0.82 0.80 0.86 0.98 1.12 1.20 1.24 1.28 1.26 1.21 1.20 1.19 1.21 1.26 1.27 1.34 1.35 1.30 1.33 1.35 1.39 1.48 1.44 1.42 1.44 1.43 1.37 1.26 1.12 1.01 0.95 0.97 1.00 0.90 0.83 0.79 0.76

GEFSNE_prec_meanprecacc_228.txt.gz
Total_Precipitation_Accumulation
1.61 1.74 1.71 1.64 1.68 1.68 1.99 2.26 2.37 2.21 2.10 2.03 1.87 1.80 1.88 1.97 2.00 1.72 1.54 1.59 1.49 1.36 1.28 1.22 1.20 1.27 1.38 1.49 1.57 1.65 1.73 1.90 2.06 2.17 2.35 2.68 3.04 3.40
1.71 1.74 1.72 1.70 1.81 1.76 1.88 2.08 2.26 2.44 2.30 1.91 1.77 1.70 1.67 1.51 1.57 1.43 1.40 1.57 1.45 1.31 1.26 1.24 1.25 1.26 1.24 1.26 1.29 1.31 1.34 1.37 1.42 1.49 1.57 1.73 1.95 2.30
1.92 1.90 1.97 2.05 2.01 1.94 2.00 2.06 2.20 2.46 2.42 1.99 1.89 1.87 1.75 1.55 1.45 1.37 1.34 1.44 1.47 1.56 1.42 1.32 1.23 1.15 1.12 1.11 1.12 1.17 1.21 1.25 1.28 1.30 1.34 1.39 1.41 1.49
2.06 2.27 2.23 2.23 2.15 2.01 2.10 2.06 2.12 2.39 2.31 2.07 2.09 2.08 1.99 1.76 1.64 1.51 1.36 1.36 1.44 1.61 1.40 1.27 1.21 1.15 1.13 1.12 1.10 1.08 1.06 1.09 1.13 1.14 1.15 1.15 1.18 1.23
2.11 2.21 2.24 2.38 2.25 2.15 2.10 2.06 2.12 2.29 2.37 2.20 2.15 2.29 2.22 1.96 1.81 1.61 1.42 1.45 1.30 1.43 1.39 1.29 1.26 1.19 1.14 1.08 1.05 1.03 1.00 1.00 1.01 1.05 1.08 1.11 1.12 1.10
2.10 2.02 2.11 2.34 2.39 2.34 2.18 2.13 2.22 2.36 2.41 2.36 2.31 2.40 2.41 2.33 2.15 1.88 1.73 1.61 1.46 1.36 1.41 1.30 1.26 1.21 1.15 1.07 1.02 1.00 1.00 0.98 0.95 0.93 0.91 0.87 0.85 0.86
1.92 1.82 1.82 2.01 2.24 2.33 2.14 2.11 2.23 2.24 2.25 2.30 2.31 2.36 2.39 2.50 2.36 2.06 1.85 1.72 1.52 1.34 1.36 1.26 1.20 1.11 1.12 1.12 1.05 0.97 0.89 0.85 0.82 0.80 0.78 0.77 0.75 0.73
1.89 1.83 1.70 1.67 1.70 1.85 1.99 2.12 2.23 2.19 2.18 2.33 2.50 2.55 2.53 2.53 2.51 2.30 2.03 1.80 1.66 1.46 1.50 1.48 1.40 1.32 1.15 1.04 1.07 0.98 0.87 0.82 0.79 0.74 0.70 0.68 0.68 0.68
1.75 1.74 1.49 1.34 1.45 1.39 1.57 1.73 1.86 1.94 1.96 2.11 2.27 2.38 2.50 2.64 2.68 2.46 2.26 2.06 1.81 1.61 1.58 1.46 1.36 1.37 1.26 1.19 1.25 1.07 0.98 0.92 0.87 0.83 0.79 0.73 0.69 0.68
1.53 1.53 1.47 1.39 1.38 1.43 1.45 1.44 1.43 1.51 1.62 1.63 1.75 1.99 2.24 2.46 2.61 2.53 2.41 2.13 1.84 1.63 1.56 1.45 1.30 1.27 1.22 1.23 1.33 1.22 1.09 0.99 0.88 0.80 0.76 0.73 0.68 0.66
1.51 1.53 1.56 1.48 1.58 1.45 1.40 1.45 1.47 1.49 1.53 1.57 1.59 1.75 2.01 2.19 2.29 2.34 2.31 2.18 1.94 1.70 1.61 1.61 1.41 1.32 1.25 1.15 1.15 1.20 1.08 1.00 0.92 0.82 0.74 0.71 0.72 0.70
1.54 1.55 1.53 1.42 1.43 1.29 1.24 1.37 1.40 1.42 1.47 1.47 1.49 1.52 1.60 1.92 2.22 2.05 2.04 2.07 1.89 1.63 1.39 1.44 1.41 1.39 1.29 1.02 0.91 0.92 0.89 0.92 0.95 0.91 0.84 0.77 0.79 0.72
1.61 1.55 1.53 1.45 1.18 1.11 1.08 1.10 1.14 1.18 1.29 1.30 1.25 1.26 1.35 1.51 1.75 1.83 1.79 1.74 1.69 1.46 1.27 1.24 1.20 1.22 1.16 0.95 0.79 0.75 0.74 0.73 0.74 0.82 0.86 0.85 0.79 0.74
1.51 1.53 1.54 1.40 1.12 1.00 0.90 0.88 0.88 0.84 0.93 1.06 1.11 1.12 1.16 1.28 1.43 1.57 1.65 1.67 1.54 1.40 1.30 1.26 1.13 1.08 1.03 0.91 0.78 0.69 0.71 0.72 0.71 0.70 0.73 0.87 0.85 0.82
1.30 1.46 1.38 1.19 1.01 0.87 0.81 0.78 0.73 0.70 0.82 0.97 1.05 1.05 1.06 1.13 1.36 1.65 1.81 1.87 1.76 1.50 1.36 1.29 1.22 1.15 1.14 1.00 0.84 0.74 0.71 0.70 0.69 0.73 0.73 0.75 0.79 0.79
1.08 1.17 1.19 1.17 1.11 1.02 0.92 0.81 0.73 0.78 0.88 0.98 1.09 1.20 1.30 1.38 1.46 1.57 1.74 1.81 1.81 1.63 1.39 1.32 1.27 1.28 1.19 1.01 0.92 0.84 0.75 0.70 0.68 0.73 0.80 0.79 0.84 0.89
1.08 1.13 1.17 1.26 1.30 1.30 1.25 1.16 1.07 1.04 1.00 1.00 1.14 1.27 1.28 1.30 1.33 1.45 1.62 1.66 1.55 1.43 1.30 1.20 1.25 1.25 1.19 1.09 0.98 0.83 0.76 0.70 0.68 0.75 0.88 0.90 0.85 0.86
0.99 1.13 1.29 1.40 1.48 1.49 1.47 1.35 1.20 1.08 1.02 1.04 1.11 1.20 1.24 1.25 1.29 1.40 1.52 1.53 1.41 1.30 1.27 1.14 1.15 1.29 1.27 1.12 0.94 0.87 0.81 0.75 0.73 0.82 0.88 0.91 0.87 0.80
0.84 1.00 1.17 1.25 1.32 1.33 1.32 1.26 1.21 1.16 1.14 1.17 1.23 1.29 1.34 1.34 1.34 1.36 1.45 1.48 1.38 1.27 1.24 1.23 1.17 1.19 1.18 0.96 0.74 0.69 0.79 0.82 0.87 0.93 0.96 0.94 0.87 0.78
0.70 0.81 0.94 1.05 1.16 1.28 1.34 1.32 1.29 1.28 1.21 1.18 1.25 1.28 1.31 1.34 1.33 1.29 1.35 1.43 1.41 1.35 1.28 1.22 1.17 1.08 1.04 0.98 0.85 0.74 0.75 0.89 1.00 1.02 0.99 1.00 0.95 0.90
0.72 0.75 0.80 0.94 1.11 1.26 1.36 1.41 1.41 1.35 1.23 1.20 1.21 1.24 1.25 1.30 1.29 1.24 1.30 1.42 1.43 1.36 1.20 1.03 0.97 1.09 1.18 1.30 1.16 0.85 0.76 0.81 0.92 1.02 1.06 1.12 1.08 1.05
0.80 0.81 0.84 0.93 1.08 1.25 1.33 1.36 1.40 1.34 1.28 1.24 1.20 1.24 1.26 1.28 1.26 1.22 1.24 1.32 1.31 1.27 1.19 1.13 1.24 1.42 1.49 1.42 1.17 0.97 0.91 0.88 0.92 0.97 0.97 0.99 1.02 0.97
0.90 0.85 0.83 0.89 1.02 1.16 1.25 1.28 1.32 1.29 1.23 1.22 1.20 1.23 1.28 1.29 1.35 1.36 1.31 1.34 1.36 1.41 1.50 1.48 1.45 1.47 1.46 1.40 1.29 1.14 1.03 0.99 1.01 1.03 0.92 0.85 0.80 0.77

GEFSNE_prec_meanprecacc_234.txt.gz
Total_Precipitation_Accumulation
1.67 1.81 1.77 1.71 1.73 1.73 2.06 2.35 2.47 2.32 2.21 2.13 1.95 1.86 1.94 2.04 2.05 1.77 1.60 1.64 1.53 1.40 1.32 1.27 1.25 1.32 1.45 1.56 1.64 1.72 1.83 2.02 2.20 2.30 2.43 2.74 3.10 3.47
1.78 1.81 1.78 1.77 1.87 1.80 1.93 2.15 2.35 2.54 2.40 1.99 1.84 1.76 1.73 1.58 1.64 1.46 1.44 1.61 1.48 1.33 1.29 1.28 1.29 1.30 1.29 1.31 1.34 1.36 1.39 1.44 1.53 1.62 1.68 1.79 1.98 2.34
1.98 1.96 2.02 2.12 2.08 1.99 2.05 2.13 2.27 2.55 2.52 2.07 1.96 1.96 1.83 1.62 1.53 1.45 1.41 1.51 1.51 1.60 1.46 1.36 1.27 1.19 1.17 1.16 1.17 1.21 1.26 1.33 1.37 1.41 1.47 1.50 1.48 1.54
2.11 2.32 2.28 2.29 2.21 2.07 2.17 2.14 2.20 2.47 2.40 2.18 2.20 2.19 2.13 1.87 1.74 1.60 1.45 1.44 1.50 1.69 1.47 1.34 1.27 1.20 1.17 1.16 1.15 1.12 1.11 1.14 1.20 1.23 1.26 1.28 1.29 1.30
2.14 2.25 2.29 2.43 2.31 2.21 2.15 2.12 2.20 2.36 2.45 2.29 2.25 2.40 2.31 2.05 1.90 1.69 1.50 1.53 1.38 1.51 1.48 1.37 1.33 1.25 1.19 1.13 1.11 1.10 1.06 1.05 1.06 1.11 1.16 1.22 1.24 1.19
2.13 2.06 2.14 2.37 2.43 2.39 2.23 2.18 2.27 2.42 2.46 2.40 2.35 2.46 2.47 2.39 2.21 1.95 1.80 1.68 1.53 1.42 1.47 1.36 1.31 1.25 1.18 1.10 1.05 1.04 1.05 1.04 1.02 1.00 0.98 0.96 0.97 0.98
1.94 1.84 1.83 2.03 2.26 2.35 2.16 2.14 2.26 2.29 2.30 2.33 2.34 2.40 2.44 2.54 2.41 2.12 1.90 1.77 1.56 1.39 1.40 1.30 1.24 1.14 1.15 1.14 1.07 1.00 0.92 0.89 0.87 0.86 0.85 0.85 0.83 0.83
1.92 1.85 1.72 1.69 1.72 1.87 2.00 2.13 2.25 2.22 2.21 2.37 2.53 2.58 2.57 2.58 2.57 2.35 2.07 1.84 1.70 1.50 1.54 1.52 1.43 1.36 1.18 1.07 1.10 1.01 0.92 0.87 0.84 0.79 0.76 0.75 0.76 0.77
1.77 1.76 1.50 1.36 1.47 1.41 1.59 1.74 1.87 1.95 1.98 2.13 2.30 2.42 2.54 2.68 2.72 2.48 2.29 2.10 1.85 1.64 1.61 1.50 1.40 1.40 1.29 1.21 1.27 1.10 1.01 0.96 0.92 0.89 0.85 0.80 0.76 0.77
1.54 1.54 1.49 1.41 1.39 1.45 1.46 1.45 1.44 1.52 1.63 1.65 1.78 2.02 2.26 2.48 2.64 2.55 2.43 2.15 1.87 1.66 1.60 1.49 1.34 1.31 1.25 1.26 1.35 1.24 1.11 1.01 0.89 0.82 0.80 0.77 0.72 0.72
1.51 1.54 1.57 1.49 1.59 1.46 1.42 1.46 1.48 1.50 1.54 1.58 1.60 1.76 2.02 2.20 2.30 2.37 2.34 2.19 1.95 1.73 1.64 1.63 1.44 1.35 1.29 1.18 1.17 1.22 1.10 1.01 0.94 0.84 0.76 0.73 0.74 0.73
1.55 1.55 1.54 1.43 1.43 1.30 1.25 1.39 1.41 1.43 1.47 1.48 1.49 1.52 1.61 1.92 2.23 2.07 2.07 2.10 1.92 1.65 1.41 1.46 1.44 1.43 1.33 1.06 0.95 0.94 0.91 0.94 0.97 0.92 0.86 0.79 0.81 0.74
1.62 1.56 1.54 1.45 1.19 1.12 1.09 1.11 1.16 1.20 1.30 1.31 1.26 1.27 1.37 1.53 1.78 1.86 1.83 1.78 1.73 1.50 1.30 1.28 1.25 1.27 1.20 0.99 0.83 0.78 0.77 0.75 0.76 0.83 0.87 0.86 0.80 0.75
1.52 1.54 1.54 1.40 1.12 1.00 0.91 0.90 0.89 0.86 0.95 1.08 1.13 1.16 1.21 1.33 1.48 1.63 1.71 1.74 1.62 1.46 1.36 1.32 1.19 1.14 1.08 0.96 0.82 0.72 0.74 0.75 0.74 0.73 0.76 0.90 0.87 0.84
1.31 1.47 1.38 1.20 1.02 0.88 0.82 0.79 0.75 0.72 0.84 1.00 1.08 1.08 1.09 1.17 1.42 1.71 1.87 1.94 1.86 1.58 1.43 1.37 1.29 1.21 1.20 1.05 0.88 0.77 0.74 0.72 0.72 0.76 0.76 0.78 0.81 0.82
1.09 1.18 1.20 1.18 1.12 1.03 0.93 0.82 0.74 0.79 0.90 1.00 1.13 1.24 1.35 1.43 1.52 1.62 1.78 1.85 1.87 1.69 1.45 1.38 1.33 1.34 1.25 1.06 0.97 0.87 0.77 0.72 0.70 0.76 0.83 0.83 0.88 0.93
1.10 1.14 1.18 1.27 1.32 1.32 1.28 1.18 1.09 1.06 1.02 1.02 1.17 1.31 1.32 1.34 1.37 1.47 1.63 1.67 1.57 1.46 1.33 1.25 1.29 1.29 1.23 1.13 1.02 0.87 0.79 0.72 0.70 0.78 0.92 0.94 0.89 0.89
1.01 1.14 1.30 1.41 1.50 1.51 1.50 1.37 1.22 1.10 1.03 1.05 1.13 1.22 1.27 1.28 1.32 1.43 1.54 1.55 1.42 1.31 1.29 1.16 1.19 1.33 1.32 1.17 0.98 0.91 0.85 0.78 0.76 0.86 0.93 0.96 0.91 0.83
0.86 1.02 1.19 1.28 1.35 1.36 1.36 1.29 1.23 1.18 1.16 1.19 1.25 1.30 1.36 1.36 1.37 1.39 1.47 1.50 1.40 1.28 1.26 1.25 1.19 1.22 1.21 0.99 0.76 0.71 0.82 0.85 0.90 0.97 1.00 0.98 0.90 0.81
0.73 0.85 0.98 1.09 1.21 1.33 1.39 1.37 1.34 1.31 1.24 1.20 1.27 1.30 1.33 1.37 1.35 1.32 1.37 1.45 1.42 1.36 1.29 1.23 1.18 1.10 1.06 1.01 0.88 0.76 0.77 0.92 1.03 1.06 1.03 1.04 0.99 0.93
0.75 0.78 0.84 0.98 1.15 1.31 1.41 1.47 1.46 1.39 1.27 1.23 1.24 1.27 1.29 1.34 1.32 1.26 1.32 1.43 1.44 1.38 1.22 1.04 0.98 1.10 1.20 1.33 1.19 0.87 0.78 0.83 0.95 1.04 1.09 1.16 1.12 1.10
0.84 0.84 0.88 0.98 1.14 1.31 1.39 1.41 1.44 1.38 1.33 1.28 1.25 1.29 1.31 1.32 1.30 1.25 1.27 1.35 1.33 1.28 1.20 1.14 1.25 1.44 1.52 1.45 1.20 1.00 0.94 0.91 0.94 0.99 1.00 1.02 1.05 1.00
0.93 0.89 0.88 0.95 1.09 1.22 1.30 1.34 1.38 1.35 1.29 1.28 1.25 1.28 1.32 1.33 1.39 1.39 1.35 1.37 1.39 1.43 1.52 1.50 1.47 1.50 1.50 1.44 1.32 1.17 1.06 1.02 1.03 1.06 0.94 0.87 0.82 0.78

GEFSNE_prec_meanprecacc_240.txt.gz
Total_Precipitation_Accumulation
1.68 1.84 1.82 1.76 1.77 1.76 2.10 2.40 2.51 2.34 2.24 2.16 1.97 1.89 1.97 2.08 2.10 1.82 1.65 1.71 1.61 1.47 1.38 1.34 1.34 1.41 1.51 1.61 1.70 1.78 1.90 2.10 2.27 2.36 2.51 2.82 3.18 3.54
1.81 1.85 1.83 1.83 1.92 1.84 1.97 2.20 2.38 2.57 2.43 2.02 1.86 1.78 1.75 1.60 1.69 1.52 1.50 1.67 1.54 1.38 1.33 1.33 1.34 1.36 1.34 1.36 1.40 1.41 1.45 1.50 1.58 1.67 1.73 1.86 2.06 2.41
2.03 2.01 2.07 2.17 2.13 2.03 2.11 2.18 2.32 2.59 2.56 2.10 1.99 2.00 1.88 1.69 1.60 1.52 1.48 1.57 1.57 1.65 1.49 1.39 1.31 1.24 1.22 1.21 1.22 1.26 1.31 1.38 1.42 1.46 1.53 1.56 1.53 1.59
2.15 2.36 2.33 2.36 2.28 2.14 2.23 2.18 2.25 2.53 2.46 2.23 2.24 2.24 2.19 1.99 1.84 1.68 1.52 1.50 1.57 1.77 1.53 1.39 1.31 1.25 1.22 1.22 1.21 1.19 1.18 1.21 1.26 1.28 1.30 1.31 1.32 1.34
2.19 2.29 2.34 2.48 2.36 2.26 2.19 2.15 2.23 2.40 2.48 2.32 2.28 2.43 2.34 2.09 1.95 1.73 1.55 1.59 1.43 1.57 1.54 1.45 1.40 1.31 1.26 1.19 1.17 1.16 1.13 1.12 1.13 1.17 1.21 1.26 1.27 1.22
2.17 2.10 2.18 2.41 2.47 2.45 2.27 2.21 2.30 2.44 2.48 2.42 2.37 2.47 2.49 2.42 2.24 1.98 1.85 1.72 1.55 1.45 1.52 1.43 1.39 1.33 1.25 1.17 1.12 1.10 1.11 1.09 1.05 1.03 1.01 0.99 1.00 1.02
1.98 1.88 1.86 2.06 2.30 2.39 2.18 2.17 2.28 2.31 2.32 2.36 2.37 2.42 2.47 2.59 2.46 2.17 1.94 1.80 1.58 1.40 1.42 1.33 1.28 1.20 1.22 1.22 1.14 1.06 0.98 0.94 0.90 0.88 0.87 0.86 0.85 0.85
1.99 1.90 1.76 1.72 1.75 1.89 2.03 2.16 2.27 2.24 2.24 2.39 2.56 2.61 2.60 2.60 2.59 2.37 2.10 1.87 1.72 1.51 1.55 1.54 1.46 1.39 1.22 1.11 1.15 1.07 0.98 0.93 0.89 0.83 0.78 0.77 0.78 0.79
1.83 1.81 1.53 1.37 1.48 1.42 1.61 1.77 1.89 1.97 2.00 2.15 2.32 2.43 2.55 2.69 2.73 2.50 2.30 2.11 1.86 1.66 1.63 1.52 1.41 1.41 1.30 1.23 1.29 1.12 1.04 1.01 0.97 0.93 0.88 0.82 0.78 0.78
1.56 1.56 1.50 1.42 1.40 1.46 1.47 1.46 1.45 1.53 1.64 1.67 1.79 2.03 2.28 2.49 2.65 2.56 2.45 2.17 1.88 1.67 1.61 1.49 1.34 1.31 1.25 1.26 1.36 1.25 1.13 1.04 0.94 0.87 0.83 0.79 0.74 0.73
1.52 1.55 1.57 1.49 1.59 1.47 1.42 1.47 1.48 1.51 1.55 1.59 1.61 1.78 2.03 2.21 2.31 2.38 2.35 2.20 1.97 1.74 1.65 1.64 1.46 1.37 1.31 1.19 1.19 1.24 1.12 1.04 0.98 0.89 0.81 0.76 0.76 0.75
1.55 1.56 1.55 1.43 1.44 1.31 1.26 1.39 1.41 1.44 1.48 1.49 1.51 1.54 1.62 1.93 2.23 2.08 2.08 2.11 1.93 1.66 1.43 1.48 1.46 1.44 1.35 1.08 0.96 0.96 0.93 0.97 1.01 0.97 0.91 0.84 0.84 0.76
1.63 1.56 1.55 1.46 1.19 1.13 1.09 1.12 1.16 1.21 1.31 1.32 1.27 1.28 1.38 1.54 1.78 1.87 1.84 1.79 1.75 1.52 1.32 1.31 1.28 1.29 1.23 1.01 0.85 0.80 0.80 0.79 0.80 0.87 0.92 0.90 0.84 0.78
1.55 1.56 1.56 1.42 1.13 1.01 0.92 0.90 0.90 0.87 0.96 1.09 1.14 1.16 1.22 1.34 1.49 1.64 1.73 1.76 1.64 1.49 1.40 1.37 1.25 1.18 1.13 1.00 0.86 0.77 0.78 0.79 0.78 0.77 0.79 0.93 0.89 0.87
1.34 1.49 1.40 1.22 1.04 0.89 0.84 0.80 0.76 0.73 0.85 1.01 1.09 1.09 1.10 1.19 1.43 1.72 1.88 1.96 1.88 1.60 1.46 1.41 1.34 1.26 1.24 1.09 0.92 0.81 0.78 0.76 0.75 0.79 0.79 0.81 0.83 0.84
1.13 1.22 1.23 1.21 1.14 1.05 0.94 0.84 0.76 0.81 0.91 1.01 1.13 1.25 1.36 1.44 1.53 1.63 1.80 1.87 1.89 1.70 1.47 1.39 1.35 1.36 1.28 1.09 0.99 0.89 0.80 0.75 0.73 0.78 0.86 0.85 0.90 0.95
1.14 1.18 1.21 1.29 1.33 1.33 1.29 1.19 1.10 1.07 1.03 1.03 1.18 1.32 1.34 1.35 1.38 1.49 1.65 1.69 1.59 1.48 1.35 1.26 1.30 1.31 1.25 1.16 1.05 0.89 0.81 0.74 0.72 0.79 0.94 0.96 0.91 0.91
1.04 1.16 1.32 1.42 1.51 1.52 1.51 1.38 1.23 1.11 1.04 1.06 1.14 1.23 1.28 1.30 1.33 1.45 1.58 1.58 1.45 1.33 1.31 1.18 1.21 1.35 1.33 1.18 1.00 0.92 0.86 0.79 0.77 0.87 0.94 0.98 0.93 0.85
0.89 1.04 1.21 1.29 1.37 1.38 1.38 1.30 1.24 1.19 1.17 1.21 1.27 1.33 1.39 1.39 1.39 1.41 1.50 1.54 1.43 1.32 1.29 1.27 1.21 1.23 1.22 0.99 0.77 0.72 0.83 0.87 0.92 0.98 1.01 0.99 0.91 0.82
0.76 0.88 1.01 1.12 1.23 1.36 1.43 1.40 1.37 1.33 1.27 1.24 1.31 1.34 1.38 1.41 1.39 1.34 1.39 1.47 1.45 1.39 1.34 1.27 1.21 1.11 1.07 1.02 0.88 0.76 0.78 0.92 1.04 1.07 1.04 1.05 1.00 0.95
0.79 0.81 0.87 1.01 1.19 1.35 1.46 1.52 1.52 1.45 1.32 1.28 1.29 1.32 1.32 1.38 1.35 1.30 1.35 1.46 1.47 1.40 1.25 1.07 1.01 1.13 1.21 1.34 1.20 0.88 0.79 0.84 0.96 1.05 1.10 1.17 1.13 1.11
0.88 0.88 0.93 1.02 1.18 1.35 1.43 1.45 1.48 1.43 1.39 1.34 1.29 1.33 1.36 1.36 1.33 1.28 1.30 1.39 1.36 1.31 1.22 1.17 1.28 1.47 1.54 1.47 1.22 1.01 0.95 0.92 0.95 1.00 1.01 1.03 1.06 1.02
0.97 0.92 0.92 0.99 1.13 1.26 1.34 1.38 1.42 1.40 1.33 1.32 1.29 1.31 1.37 1.38 1.43 1.43 1.38 1.41 1.43 1.47 1.56 1.54 1.50 1.53 1.53 1.47 1.35 1.19 1.07 1.03 1.05 1.08 0.96 0.89 0.84 0.80

GEFSNE_prec_meanprecacc_246.txt.gz
Total_Precipitation_Accumulation
1.70 1.86 1.84 1.79 1.81 1.79 2.12 2.42 2.53 2.35 2.25 2.17 1.99 1.90 1.98 2.09 2.13 1.85 1.68 1.75 1.65 1.50 1.42 1.38 1.37 1.45 1.58 1.70 1.78 1.86 1.99 2.21 2.42 2.52 2.65 2.97 3.33 3.70
1.82 1.87 1.85 1.85 1.95 1.88 2.01 2.23 2.41 2.59 2.45 2.04 1.89 1.81 1.77 1.62 1.71 1.54 1.52 1.69 1.57 1.42 1.38 1.38 1.38 1.39 1.39 1.42 1.47 1.49 1.52 1.57 1.68 1.78 1.83 1.94 2.14 2.50
2.05 2.04 2.09 2.19 2.16 2.07 2.15 2.22 2.35 2.62 2.59 2.14 2.04 2.04 1.91 1.71 1.63 1.55 1.51 1.59 1.60 1.69 1.54 1.44 1.35 1.27 1.25 1.25 1.28 1.33 1.38 1.44 1.50 1.55 1.62 1.64 1.61 1.66
2.18 2.39 2.35 2.38 2.30 2.17 2.27 2.21 2.27 2.55 2.49 2.27 2.29 2.30 2.24 2.03 1.89 1.72 1.55 1.53 1.61 1.82 1.59 1.44 1.36 1.29 1.26 1.26 1.25 1.23 1.23 1.26 1.31 1.34 1.37 1.39 1.40 1.41
2.21 2.31 2.35 2.49 2.38 2.28 2.22 2.19 2.27 2.43 2.51 2.35 2.32 2.47 2.39 2.14 2.00 1.77 1.58 1.63 1.47 1.61 1.59 1.50 1.47 1.38 1.32 1.26 1.24 1.21 1.17 1.16 1.19 1.25 1.30 1.35 1.36 1.31
2.19 2.11 2.19 2.42 2.48 2.46 2.28 2.24 2.34 2.47 2.50 2.44 2.39 2.49 2.51 2.45 2.28 2.04 1.92 1.77 1.60 1.49 1.56 1.47 1.44 1.38 1.31 1.23 1.18 1.16 1.17 1.15 1.12 1.10 1.09 1.08 1.09 1.10
2.00 1.89 1.88 2.08 2.32 2.40 2.20 2.19 2.31 2.33 2.34 2.37 2.38 2.43 2.48 2.61 2.50 2.22 1.98 1.83 1.61 1.43 1.45 1.35 1.31 1.23 1.26 1.27 1.19 1.11 1.04 1.02 0.99 0.96 0.95 0.94 0.92 0.92
2.00 1.92 1.80 1.77 1.80 1.93 2.06 2.18 2.30 2.26 2.26 2.41 2.57 2.62 2.61 2.61 2.60 2.39 2.11 1.88 1.73 1.53 1.57 1.55 1.47 1.41 1.24 1.14 1.19 1.11 1.02 0.99 0.97 0.91 0.87 0.87 0.88 0.88
1.85 1.85 1.58 1.42 1.53 1.46 1.64 1.80 1.92 1.99 2.01 2.17 2.33 2.43 2.55 2.69 2.73 2.51 2.31 2.12 1.87 1.67 1.64 1.53 1.43 1.42 1.32 1.25 1.33 1.17 1.10 1.06 1.02 0.99 0.93 0.87 0.84 0.85
1.57 1.58 1.53 1.46 1.44 1.49 1.49 1.48 1.47 1.55 1.65 1.67 1.79 2.03 2.28 2.49 2.65 2.57 2.46 2.17 1.89 1.67 1.61 1.50 1.35 1.32 1.26 1.28 1.39 1.28 1.16 1.06 0.97 0.91 0.87 0.83 0.78 0.77
1.53 1.56 1.59 1.52 1.63 1.50 1.45 1.49 1.50 1.52 1.56 1.60 1.62 1.78 2.04 2.21 2.32 2.39 2.35 2.21 1.97 1.74 1.66 1.65 1.46 1.37 1.31 1.20 1.20 1.26 1.14 1.06 0.99 0.93 0.87 0.83 0.81 0.79
1.57 1.58 1.57 1.46 1.48 1.34 1.28 1.41 1.43 1.45 1.49 1.49 1.51 1.54 1.62 1.94 2.24 2.08 2.09 2.12 1.93 1.67 1.43 1.48 1.46 1.45 1.36 1.10 0.98 0.98 0.96 1.00 1.03 1.00 0.96 0.91 0.92 0.83
1.66 1.60 1.59 1.51 1.23 1.15 1.11 1.13 1.19 1.23 1.32 1.33 1.29 1.29 1.39 1.54 1.79 1.88 1.85 1.80 1.76 1.53 1.33 1.32 1.28 1.31 1.25 1.04 0.88 0.84 0.84 0.85 0.84 0.91 0.97 0.97 0.93 0.84
1.60 1.61 1.60 1.46 1.17 1.05 0.95 0.94 0.94 0.91 0.99 1.11 1.17 1.19 1.24 1.36 1.50 1.65 1.73 1.77 1.66 1.51 1.42 1.39 1.26 1.20 1.15 1.02 0.89 0.80 0.82 0.83 0.84 0.83 0.85 1.02 1.00 0.94
1.41 1.56 1.46 1.27 1.09 0.93 0.87 0.84 0.80 0.76 0.88 1.03 1.11 1.11 1.12 1.20 1.45 1.73 1.89 1.97 1.90 1.63 1.48 1.43 1.37 1.28 1.25 1.11 0.95 0.84 0.82 0.81 0.80 0.85 0.85 0.89 0.93 0.93
1.21 1.29 1.29 1.26 1.19 1.08 0.97 0.87 0.78 0.84 0.94 1.03 1.15 1.27 1.38 1.46 1.55 1.64 1.81 1.88 1.90 1.72 1.49 1.42 1.38 1.39 1.30 1.11 1.01 0.92 0.83 0.79 0.79 0.85 0.91 0.91 0.97 1.02
1.20 1.22 1.24 1.32 1.36 1.36 1.32 1.22 1.14 1.12 1.08 1.07 1.22 1.35 1.36 1.37 1.40 1.50 1.66 1.70 1.60 1.49 1.37 1.28 1.33 1.34 1.28 1.19 1.07 0.92 0.84 0.78 0.76 0.85 0.99 1.01 0.96 0.97
1.09 1.21 1.36 1.45 1.53 1.55 1.53 1.41 1.26 1.14 1.08 1.11 1.18 1.27 1.31 1.32 1.36 1.47 1.60 1.60 1.46 1.35 1.33 1.21 1.23 1.38 1.36 1.21 1.02 0.94 0.88 0.81 0.79 0.89 0.97 1.01 0.97 0.89
0.94 1.08 1.24 1.32 1.39 1.41 1.41 1.34 1.28 1.22 1.21 1.24 1.30 1.36 1.42 1.42 1.42 1.45 1.54 1.57 1.47 1.35 1.32 1.30 1.24 1.27 1.26 1.03 0.80 0.75 0.85 0.88 0.93 0.99 1.03 1.00 0.93 0.84
0.81 0.93 1.06 1.16 1.27 1.40 1.46 1.43 1.40 1.36 1.30 1.27 1.35 1.38 1.43 1.48 1.45 1.40 1.45 1.52 1.49 1.43 1.37 1.31 1.25 1.16 1.11 1.06 0.92 0.81 0.82 0.96 1.08 1.10 1.06 1.07 1.02 0.97
0.81 0.84 0.91 1.05 1.23 1.39 1.51 1.58 1.59 1.52 1.39 1.36 1.38 1.40 1.39 1.46 1.43 1.36 1.40 1.52 1.51 1.44 1.27 1.10 1.04 1.18 1.27 1.39 1.24 0.91 0.83 0.88 0.99 1.08 1.13 1.19 1.15 1.12
0.89 0.90 0.95 1.04 1.21 1.38 1.46 1.48 1.53 1.48 1.44 1.41 1.36 1.40 1.43 1.43 1.39 1.36 1.38 1.45 1.41 1.35 1.25 1.20 1.31 1.51 1.59 1.52 1.26 1.05 0.99 0.95 0.98 1.03 1.04 1.05 1.07 1.03
0.98 0.94 0.93 1.00 1.14 1.28 1.35 1.40 1.44 1.42 1.36 1.36 1.35 1.37 1.44 1.48 1.50 1.48 1.45 1.47 1.49 1.51 1.60 1.57 1.53 1.56 1.56 1.51 1.39 1.22 1.10 1.07 1.09 1.11 0.99 0.91 0.86 0.82